TimeCST,TemperatureF,Dew PointF,Humidity,Sea Level PressureIn,VisibilityMPH,Wind Direction,Wind SpeedMPH,Gust SpeedMPH,PrecipitationIn,Events,Conditions,WindDirDegrees,DateUTC
12:52 AM,60.1,52.0,75,30.13,10.0,South,11.5,-,N/A,,Clear,190,2013-01-24 06:52:00
1:52 AM,60.1,51.1,72,30.13,10.0,SSW,8.1,-,N/A,,Clear,200,2013-01-24 07:52:00
2:52 AM,57.0,51.1,81,30.14,10.0,South,5.8,-,N/A,,Clear,170,2013-01-24 08:52:00
3:52 AM,55.0,48.9,80,30.14,10.0,South,5.8,-,N/A,,Clear,170,2013-01-24 09:52:00
4:52 AM,55.0,48.9,80,30.14,10.0,SSE,5.8,-,N/A,,Clear,160,2013-01-24 10:52:00
5:52 AM,53.1,48.0,83,30.14,10.0,South,4.6,-,N/A,,Clear,170,2013-01-24 11:52:00
5:59 AM,53.6,48.2,82,30.19,10.0,South,6.9,-,N/A,,Scattered Clouds,170,2013-01-24 11:59:00
6:52 AM,53.1,48.0,83,30.14,10.0,South,4.6,-,N/A,,Scattered Clouds,170,2013-01-24 12:52:00
7:52 AM,53.1,48.0,83,30.15,10.0,Calm,Calm,-,N/A,,Scattered Clouds,0,2013-01-24 13:52:00
8:52 AM,57.0,50.0,77,30.16,10.0,Calm,Calm,-,N/A,,Scattered Clouds,0,2013-01-24 14:52:00
9:52 AM,62.1,52.0,70,30.16,10.0,SE,3.5,-,N/A,,Scattered Clouds,140,2013-01-24 15:52:00
10:52 AM,71.1,53.1,53,30.16,10.0,WSW,9.2,-,N/A,,Scattered Clouds,240,2013-01-24 16:52:00
11:52 AM,75.0,53.1,46,30.14,10.0,WSW,6.9,-,N/A,,Scattered Clouds,250,2013-01-24 17:52:00
12:52 PM,79.0,52.0,39,30.10,10.0,WSW,10.4,-,N/A,,Clear,240,2013-01-24 18:52:00
1:52 PM,81.0,50.0,34,30.06,10.0,WSW,6.9,-,N/A,,Partly Cloudy,240,2013-01-24 19:52:00
2:52 PM,84.0,46.9,27,30.03,10.0,Variable,6.9,17.3,N/A,,Partly Cloudy,0,2013-01-24 20:52:00
3:52 PM,82.0,45.0,27,30.02,10.0,NNW,13.8,-,N/A,,Partly Cloudy,340,2013-01-24 21:52:00
4:10 PM,75.2,44.6,34,30.07,10.0,NNW,16.1,-,N/A,,Partly Cloudy,340,2013-01-24 22:10:00
4:52 PM,72.0,44.1,37,30.04,10.0,NNW,12.7,-,N/A,,Partly Cloudy,330,2013-01-24 22:52:00
5:52 PM,66.0,45.0,47,30.04,10.0,NNW,6.9,-,N/A,,Partly Cloudy,330,2013-01-24 23:52:00
6:52 PM,63.0,44.1,50,30.06,10.0,NNW,8.1,-,N/A,,Partly Cloudy,330,2013-01-25 00:52:00
7:52 PM,59.0,42.1,53,30.06,10.0,NNW,9.2,-,N/A,,Partly Cloudy,330,2013-01-25 01:52:00
8:52 PM,55.9,41.0,57,30.06,10.0,NW,5.8,-,N/A,,Partly Cloudy,320,2013-01-25 02:52:00
9:52 PM,54.0,39.0,57,30.06,10.0,NNW,5.8,-,N/A,,Scattered Clouds,330,2013-01-25 03:52:00
10:52 PM,53.1,39.0,59,30.05,10.0,Calm,Calm,-,N/A,,Partly Cloudy,0,2013-01-25 04:52:00
11:52 PM,51.1,37.9,61,30.07,9.0,NW,10.4,-,N/A,,Clear,320,2013-01-25 05:52:00